Simultaneous Nadir Overpasses (SNOs) Predictions

Prediction of SNOs between METOP-A and TERRA Satellite Orbit:

Table of predicted SNOs for the next 14.0 days since TLE Epoch: 10/15/2017
Index Date (METOP-A) Time (METOP-A) Lat,Lon (METOP-A) SZA (METOP-A ) Date (TERRA) Time (TERRA) Lat,Lon (TERRA) SZA (TERRA ) Distance(km) Time Diff (sec)
1 10/15/2017 22:38:27 81.36,-111.54 93.42 10/15/2017 22:38:57 81.35,-111.73 93.40 3.21 30
2 10/15/2017 23:29:06 -81.37, 56.36 86.51 10/15/2017 23:28:23 -81.37, 56.23 86.54 2.30 43
3 10/18/2017 18:12:47 81.36, -45.40 94.42 10/18/2017 18:13:10 81.36, -45.21 94.45 3.11 23
4 10/18/2017 19:03:25 -81.37, 122.91 85.45 10/18/2017 19:02:36 -81.37, 122.75 85.49 2.70 49
5 10/21/2017 13:47:05 81.36, 21.12 95.45 10/21/2017 13:47:22 81.36, 21.24 95.47 2.06 17
6 10/21/2017 14:37:44 -81.37,-170.96 84.47 10/21/2017 14:36:48 -81.38,-170.78 84.47 3.12 56
7 10/24/2017 09:21:24 81.36, 87.61 96.45 10/24/2017 09:21:35 81.36, 87.64 96.45 0.82 11
8 10/24/2017 10:12:03 -81.37,-104.45 83.47 10/24/2017 10:11:01 -81.37,-104.37 83.49 1.47 62
9 10/27/2017 04:55:42 81.37, 154.48 97.47 10/27/2017 04:55:47 81.37, 154.35 97.46 2.14 5




NCC Satellite Simultaneous Nadir Overpasses (SNOs) Prediction Service
